Regional Weather Roundup
Issued by NWS Sioux Falls, SD

Home | Current Version | Previous Version | Graphics & Text | Print | Product List | Glossary Off
Versions: 1 2 3 4 5 6 7 8 9 10 11 12 13 14 15 16 17 18 19 20 21 22 23 24 25 26 27 28 29 30 31 32 33 34 35 36 37 38 39 40 41 42 43 44 45 46 47 48 49 50

000
ASUS43 KFSD 111602
RWRFSD

WEATHER ROUNDUP FOR SE SOUTH DAKOTA/SW MINNESOTA/NW IOWA
NATIONAL WEATHER SERVICE SIOUX FALLS SD
1100 AM CDT FRI JUL 11 2014

NOTE: "FAIR" INDICATES FEW OR NO CLOUDS BELOW 12,000 FEET WITH NO
SIGNIFICANT WEATHER AND OR OBSTRUCTIONS TO VISIBILITY.


SDZ038>040-050-052>070-111700-
SOUTHEAST SOUTH DAKOTA

CITY           SKY/WX    TMP DP  RH WIND       PRES   REMARKS
CHAMBERLAIN    MOSUNNY   83  72  69 CALM      29.91R
HURON          MOSUNNY   83  69  62 N10       29.89R
MADISON        PTSUNNY   75  73  94 W13G22    29.93R
MITCHELL       MOSUNNY   80  71  74 SW12      29.91R
SIOUX FALLS    PTSUNNY   77  69  76 S17       29.93R
WINNER         FAIR      81  66  60 W7        29.94R
YANKTON        PTSUNNY   75  70  83 SW13      29.94R
$$

MNZ071-072-080-081-089-090-097-098-111700-
SOUTHWEST MINNESOTA

CITY           SKY/WX    TMP DP  RH WIND       PRES   REMARKS
FAIRMONT       MOSUNNY   73  63  68 S20       29.97R
JACKSON        PTSUNNY   75  64  69 S20G26    29.99R
LUVERNE        CLOUDY    73  68  83 S15       29.96R
MARSHALL       CLOUDY    79  68  69 SW9       29.91R
MONTEVIDEO     PTSUNNY   82  72  69 SW5       29.90R
PIPESTONE      MOSUNNY   79  70  73 SW16      29.94R
REDWOOD FALLS  CLOUDY    77  68  73 S13       29.92S
TRACY          PTSUNNY   78  70  76 SW12G20   29.94R
WINDOM         PTSUNNY   75  64  69 S13G28    29.97R
WORTHINGTON    CLOUDY    72  66  83 S15G25    29.99R
$$

IAZ001>003-012>014-020>022-031-032-NEZ013-014-SDZ071-111700-
NORTHWEST IOWA

CITY           SKY/WX    TMP DP  RH WIND       PRES   REMARKS
CHEROKEE       PTSUNNY   72  68  87 S20       29.97R
DENISON        CLOUDY    68  66  94 S9G17     29.99R
ESTHERVILLE    MOSUNNY   75  65  70 S24G35    29.97R
LE MARS        CLOUDY    73  68  83 S20G28    29.94S
ORANGE CITY    CLOUDY    75  66  73 S10       29.97R
SHELDON        CLOUDY    73  68  83 S15G22    29.98R
SIOUX CITY     PTSUNNY   75  68  78 S15       29.95R
SPENCER        PTSUNNY   74  67  78 S12       29.99R
STORM LAKE     PTSUNNY   72  68  88 S21G30    29.97R
$$

ABBREVIATIONS USED IN REMARKS
   TC - TEMPERATURE IN CELSIUS
  WCI - WIND CHILL INDEX
   HX - HEAT INDEX
  VSB - VISIBILITY



USA.gov is the U.S. government's official web portal to all federal, state and local government web resources and services.